Regional Weather Roundup
Issued by NWS

Home | Current Version | Previous Version | Graphics & Text | Print | Product List | Glossary On
Versions: 1 2 3 4 5 6 7 8 9 10 11 12 13 14 15 16 17 18 19 20 21 22 23 24 25 26 27 28 29 30 31 32 33 34 35 36 37 38 39 40 41 42 43 44 45 46 47 48 49 50
000
ASUS43 KTOP 011459
RWRKS

WEATHER ROUNDUP FOR KANSAS
NATIONAL WEATHER SERVICE GOODLAND KS
1000 AM CDT TUE SEP 01 2015

NOTE:  "FAIR" INDICATES FEW OR NO CLOUDS BELOW 12,000 FEET WITH NO
SIGNIFICANT WEATHER AND/OR OBSTRUCTIONS TO VISIBILITY.

KSZ001>006-013>018-027>032-041>047-011600-
NORTHWEST KANSAS

CITY           SKY/WX    TMP DP  RH WIND       PRES   REMARKS
GOODLAND       MOSUNNY   73  61  65 W6        30.03R
HAYS           MOSUNNY   82  59  44 SW21G26   29.95F
HILL CITY      LGT RAIN  74  63  68 SW9       29.96S
RUSSELL        SUNNY     83  60  45 S21G31    29.95S
$$

KSZ061>065-074>080-084>089-011600-
SOUTHWEST KANSAS

CITY           SKY/WX    TMP DP  RH WIND       PRES   REMARKS
DODGE CITY     SUNNY     77  59  53 S17G25    30.00R
ELKHART          N/A     73  58  59 SE8         N/A
GARDEN CITY    MOSUNNY   75  57  53 W5        30.00R
GREAT BEND     SUNNY     82  61  47 S23       29.96S
LIBERAL        MOSUNNY   77  57  50 SW12      30.03S
$$

KSZ066>073-081>083-090>101-011600-
SOUTHEAST KANSAS

CITY           SKY/WX    TMP DP  RH WIND       PRES   REMARKS
CHANUTE        SUNNY     79  68  69 S12       30.05S
COFFEYVILLE    SUNNY     78  69  73 S12       30.05S
HUTCHINSON     MOSUNNY   80  64  58 S15       30.00F
NEWTON         SUNNY     81  63  54 S15       30.04S
PARSONS        SUNNY     79  70  74 S8        30.06S
WICHITA INTL   MOSUNNY   80  65  59 S16       30.01S
WICHITA JABRA    N/A     79  66  64 S13       30.01F
WINFIELD       SUNNY     81  66  60 S13       30.04S
$$

KSZ007>012-019>026-033>040-048>060-102>105-011600-
NORTHEAST KANSAS

CITY           SKY/WX    TMP DP  RH WIND       PRES   REMARKS
CONCORDIA      PTSUNNY   77  64  64 S16       29.96S
EMPORIA        SUNNY     77  66  68 S10       30.02S
LAWRENCE       SUNNY     80  68  66 S7        30.03R
MANHATTAN      SUNNY     82  66  58 SW16G23   29.98S
OLATHE IND     SUNNY     79  69  71 S10       30.05S
OLATHE EXE     SUNNY     77  68  73 S8        30.04S
SALINA         MOSUNNY   81  64  56 S17       29.97F
TOPEKA BILLARD SUNNY     80  67  64 S8        30.01S
TOPEKA FORBES  SUNNY     80  68  66 S14       30.02R
$$


USA.gov is the U.S. government's official web portal to all federal, state and local government web resources and services.